BRO-8 (55011 NORAD) Tracking and Keplerian Element Data

This shows tracking and keplerian element data for the satellite.

Feedback or suggestion? Click here.




ElementValue
Catalog55011
NameBRO-8
Epoch Orbit1247
Epoch Day85.11802438
Epoch Year2023
RAAN145.8256
Inclination97.4923
Eccentricity0.0009495
Argument of Perigee317.6376
Mean Anonmoly97.4896
Mean Motion15.13052821
Decay Rate0.00010207
L11 55011U 23001C 23085.11802438 .00010207 00000+0 58006-3 0 9994
L22 55011 97.4923 145.8256 0009495 317.6376 97.4896 15.13052821 12474



Live tracking and technical data element details for BRO-8 (NORAD 55011). BRO-8 can be tracked NOW for your location showing map with azimuth and elevation plus other details from your city location.







IsCatalogInMostPopularTable: catalog: 55011, numindb: 9
Update: records affected: 1



GetName: 55011 BRO-8

Hit Count: updated at: Mon, 27 Mar 2023 06:47:45 GMT